Regional Weather Roundup
Issued by NWS

Home | Current Version | Previous Version | Text Only | Print | Product List | Glossary Off
Versions: 1 2 3 4 5 6 7 8 9 10 11 12 13 14 15 16 17 18 19 20 21 22 23 24 25 26 27 28 29 30 31 32 33 34 35 36 37 38 39 40 41 42 43 44 45 46 47 48 49 50

000
ASUS43 KLSX 221010
RWRMO

WEATHER SUMMARY FOR MISSOURI
NATIONAL WEATHER SERVICE SPRINGFIELD MO
400 AM CST SUN JAN 22 2017

NOTE: "FAIR" INDICATES FEW OR NO CLOUDS BELOW 12,000 FEET WITH NO
       SIGNIFICANT WEATHER AND/OR OBSTRUCTIONS TO VISIBILITY.
       CURRENT SKY AND/OR WEATHER CONDITIONS ARE NOT AVAILABLE FOR
       CHILLICOTHE AND FARMINGTON.

MOZ001>031-035>038-043-044-053-054-221100-
...NORTHERN AND WESTERN MISSOURI...

CITY           SKY/WX    TMP DP  RH WIND       PRES   REMARKS
KANSAS CTY INT CLOUDY    45  41  86 NE6       29.56R
KANSAS C DTWN  CLOUDY    46  45  96 NE8       29.55S
LEE`S SUMMIT   LGT RAIN  45  44  97 NE10      29.54S FOG
ST JOSEPH      CLOUDY    42  41  96 N8        29.58R
CHILLICOTHE      N/A     41  40  96 CALM      29.58S
KIRKSVILLE     CLOUDY    40  40 100 E3        29.58S FOG

$$
MOZ066>068-077>081-088>096-101>105-221100-
...SOUTHWEST MISSOURI...

CITY           SKY/WX    TMP DP  RH WIND       PRES   REMARKS
SPRINGFIELD    CLOUDY    50  48  93 NE12      29.42F
JOPLIN         LGT RAIN  49  49 100 NE10      29.43S
BRANSON        CLOUDY    48  48 100 CALM      29.39F

$$
MOZ032>034-039>042-045>050-055>058-069>072-221100-
...CENTRAL MISSOURI...

CITY           SKY/WX    TMP DP  RH WIND       PRES   REMARKS
COLUMBIA       CLOUDY    47  45  93 N12       29.50S
JEFFERSON CITY CLOUDY    49  45  86 N3        29.49S
ROLLA          CLOUDY    48  46  93 NE8       29.46S
SEDALIA        LGT RAIN  48  45  89 NE6       29.52R
WHITEMAN AFB   CLOUDY    46  46 100 NE7       29.51S
WARRENSBURG    CLOUDY    45  43  93 N7        29.52F
OSAGE BEACH    LGT RAIN  49  46  90 NE13      29.48S

$$
MOZ051-052-059>065-221100-
...EAST CENTRAL MISSOURI...

CITY           SKY/WX    TMP DP  RH WIND       PRES   REMARKS
ST LOUIS INTL  CLOUDY    49  41  74 N10       29.50F
SPIRIT OF STL  CLOUDY    50  43  77 N6        29.50S
ST CHARLES     CLOUDY    47  43  86 N8        29.52S

$$
MOZ072>076-082>087-097>100-106>115-221100-
...SOUTH CENTRAL AND SOUTHEAST MISSOURI...

CITY           SKY/WX    TMP DP  RH WIND       PRES   REMARKS
CAPE GIRARDEAU CLOUDY    50  48  93 NE3       29.47S
FARMINGTON     FOG       47  46  97 CALM      29.49S VSB 1/2
POPLAR BLUFF   CLOUDY    53  52  96 CALM      29.44F
WEST PLAINS    CLOUDY    55  53  93 E6        29.44F

$$




USA.gov is the U.S. government's official web portal to all federal, state and local government web resources and services.